Location: Briis
(48.6240°N, 2.1211°E)
Time: 11:23:27
(UTC+00:00)

USA 234 - Pass Details

Date: 25 September 2020
Orbit: 1102 x 1106 km, 123.0° (Epoch: 16 October)

Event Time Altitude Azimuth Distance (km) Brightness Sun altitude
Rises 04:01:02 0° 135° (SE) 3,908 6.5 -17.3°
Reaches altitude 10° 04:03:32 10° 138° (SE) 2,953 5.8 -17.0°
Maximum altitude 04:10:01 65° 220° (SW) 1,202 3.2 -15.9°
Drops below altitude 10° 04:16:31 10° 302° (WNW) 2,966 5.1 -14.9°
Enters shadow 04:18:09 - 304° (NW) 3,582 5.6 -14.7°
